Погода в Жлобине

Погода в Жлобине : погода сейчас, прогноз погоды и архив. Всё, что Вы хотите узнать о погоде в Жлобине!

Хотите узнать прогноз погоды в Жлобине? Тогда Вам сюда: Погода в Жлобине

Поиск расширенной информации на нашем сайте:

Другие новости

Новости СМИ2

Главная страница сайта

Новости сайта

02.10.2013

Напоминаем, что на нашем новом сайте вы можете получить высокодетализированные прогнозы погоды по пунктам России, СНГ и мира (включающие важные для авиации метеовеличины, такие как направление и скорость ветра, видимость, явления погоды, количество и форма облачности, нижняя и верхняя граница облачности), а также ознакомиться с разнообразными материалами по авиационной метеорологии и подборкой полезных ссылок на эту тему.

Сайт Метеоцентр.Азия посвящён разработке технологий оптимизации авиаметеорологического обслуживания, включая проектирование и перспективное создание нескольких автоматизированных авиаметеорологических систем:
- система выпуска высокодетальных прогностических карт явлений погоды для нижнего воздушного пространства по России и ближнему зарубежью;
- система верификации прогнозов TAF (выпускаемых синоптиками официальных АМСГ РФ и ближнего зарубежья) и AUTOTAF (выпускаемых сайтом Метеоцентр.Азия) - выявление ошибок, онлайн-сопоставление с фактической погодой METAR, автоматическое внесение коррективов в прогнозы при резком отклонении фактической погоды от прогноза, подсчёт оправдываемости прогнозов по элементам и в целом;
- система обработки, анализа и отображения авиаметеорологической информации для применения провайдерами метеорологической информации.


Погода в Жлобине - сегодня

Время (UTC), дата Ветер
(°,м/с) 
Видим.   Явления Облачность Т
(°С)
Тd
(°С)
f(%) Тe
(°С)
Pmin
(гПа)
dP
(гПа)
Po
(мм)
O2
(г/м3)
Тmin Tmax R s Состояние
почвы
00 24.04.17 300 (СЗ) 15000 м  {ливн. осадки}  ясно 
+0.6 -1.1 88 +1  1011.2  -0.2  745  300           
06 24.04.17 330 (СЗ) 30000 м    ясно 
+3 -2.1 69 +2  1013.1  747  298  -1    0.0     
09 24.04.17 300 (СЗ) 30000 м    8/3 600 м кучево-дожд. 
[Cb cap]
+8.5 -5.7 36 +8  1012.8  -0.1  747  292           
12 24.04.17 240 (ЮЗ) 28000 м  осадки на расстоянии{ливн. осадки}  8/5 600 м кучево-дожд. 
[Cb cap]
+7.1 -4.7 43 +6  1013.1  0.3  747  294           
15 24.04.17 220 (ЮЗ) 30000 м    5/3 600 м кучево-дожд. 
[Cb cap]
+8.5 -4.1 41 +9  1012.2  -0.8  746  292      0.0     
18 24.04.17 280 (З) 2{10}  25000 м    4/3 600 м кучево-дожд. 
[Cb cap]
+5.8 -0.5 64 +6  1014.2  1.8  748  295    +9.8  0.0     
21 24.04.17 270 (З) 25000 м    ясно 
+3.1 -1 74 +3  1015.1  0.7  748  298           
00 25.04.17 220 (ЮЗ) 20000 м    ясно 
+2.1 -0.7 82 +1  1015.5  0.3  748  299           
03 25.04.17 190 (Ю) 18000 м    8/3 600 м кучево-дожд., средняя, верхняя 
[Cb cap|Ac lent|Cs]
+1.1 -0.9 86 1015.8  0.1  748  300           
06 25.04.17 200 (Ю) 25000 м    8/0 верхняя 
[Ci fib]
+6.3 -0.8 60 +6  1016.1  0.7  749  295  +1.1         
09 25.04.17 230 (ЮЗ) 30000 м    10/8 1000 м средняя 
[Sc|Ac und]
+10.6 -1.7 42 +10  1015.1  -0.6  749  291           
12 25.04.17 200 (Ю) 30000 м    10/8 1000 м средняя 
[Cu med, cong|Ac und]
+13.2 -0.5 39 +12  1013.3  -1.6  747  287           
15 25.04.17 180 (Ю) 5-11{11}  30000 м    10/6 1000 м верхняя 
[Cu hum|Ci fib]
+15 -0.9 34 +15  1011.2  -2  746  285           
18 25.04.17 190 (Ю) 2{11}  30000 м    10/0 средняя, верхняя 
[Ac As|Cs]
+12.8 -0.2 41 +13  1011.1  -0.2  746  287    +15.3       
21 25.04.17 180 (Ю) 26000 м    4/0 верхняя 
[Ci fib]
+11.2 -1.2 42 +10  1009.7  -1.5  745  288           
00 26.04.17 180 (Ю) 23000 м    8/8 600 м 
[Sc]
+11.5 -0.7 43 +11  1009.2  -0.5  744  288           
03 26.04.17 180 (Ю) 20000 м    10/3 1000 м средняя, верхняя 
[Sc diur, vesp|Ac lent|Cc]
+9.7 +1.3 56 +9  1009.2  -0.1  744  289           
06 26.04.17 180 (Ю) 25000 м    9/0 средняя 
[Ac trans]
+11.4 +3.2 57 +11  1009.4  0.3  744  287  +9.7         
09 26.04.17 200 (Ю) 3{10}  25000 м    10/8 1000 м средняя 
[Sc|Ac As]
+15.9 +3.8 44 +16  1009.1  744  283           
12 26.04.17 270 (З) 3{10}  9000 м  слаб. ливневой дождь  10/10 600 м кучево-дожд. 
[Cb cap]
+10 +7.7 86 +10  1010.5  745  288           
15 26.04.17 340 (С) 8000 м  слаб. ливневой дождь  10/10 300 м кучево-дожд. 
[Cb cap]
+6.8 +5.5 91 +7  1012.8  2.1  747  293         
18 26.04.17 360 (С) 7000 м  слаб. ливневой дождь  10/10 300 м кучево-дожд. 
[Cb cap]
+5.7 +4.8 94 +7  1013.6  0.7  747  294    +19.2     
21 26.04.17 360 (С) 6000 м  слаб. ливневой дождь  10/10 300 м кучево-дожд. 
[Cb cap]
+5.4 +4.5 94 +6  1014.3  0.7  748  295           
00 27.04.17 360 (С) 7000 м  слаб. ливневой дождь  10/10 300 м кучево-дожд. 
[Cb cap]
+5.3 +4.6 95 +6  1013.6  -0.7  747  295           
06 27.04.17 090 (В) 7000 м  дымка{ливн. осадки, дождь}  10/8 100 м средняя 
[St|Ac trans]
+7.6 +7.1 97 +8  1012.2  -0.5  746  291  +5.2       
Время (UTC), дата Ветер
(°,м/с) 
Видим.   Явления Облачность Т
(°С)
Тd
(°С)
f(%) Тe
(°С)
Pmin
(гПа)
dP
(гПа)
Po
(мм)
O2
(г/м3)
Тmin Tmax R s Состояние
почвы

Для получения пояснительной информации подведите курсор к названию столбца.

ПОГОДА в Жлобине - архив

Всё, что Вы хотите узнать о погоде в Жлобине - удобно и подробно!

Выберите нужную дату (начиная с 1 января 2015* года) и нажмите кнопку "Найти".
Будут отображены архивные сводки погоды по пункту Жлобин, начиная с указанной даты.


Отображать данные в формате CSV (для использования в таблицах Excel)


Внимание! Наш архив погоды предназначен исключительно для личного некоммерческого использования в познавательных целях. Если Вам необходимы официальные справки о состоянии погоды (для производственных, юридических, коммерческих и т.п. целей), обращайтесь в органы Росгидромета.

*Примечание: данная дата относится к архиву по метеостанциям СССР (Россия, СНГ, Балтия).
Архив по метеостанциям Зарубежной Европы и Азии (кроме Китая) хранится 10 дней, по другим регионам земного шара (Китай, Африка, Америка, Австралия, Океания) - 1 день.

Жлобин - район местоположения метеостанции


Название, широта, долгота, высота метеостанции:
Жлобин 52.9°ш. 30°д. 142 м над ур. моря [Беларусь]

Дополнительная информация

В oтличие oт бoльшинства пoгoдных сайтoв мы публикуем пoдрoбную метеoинфoрмацию в детальнoм прoфессиoнальнoм фoрмате.

Характеристики температуры и влажнoсти вoздуха измеряются на высoте 2 м в тени вдали oт зданий и деревьев.
Скoрoсть ветра измеряется на высoте 10 м (на урoвне рoста челoвека скoрoсть ветра ниже в 1.5-2 раза). Если метеoстанция нахoдится в гoрoде или в лесу, тo скoрoсть ветра занижена на 2-4 м/с пo сравнению с oткрытым местoм. Скoрoсть ветра над акватoриями крупных рек и oзёр, а также на вершинах хoлмoв на 2-5 м/с выше, чем в oбычных услoвиях.
Атмoсфернoе давление в разных тoчках местнoсти мoжет значительнo oтличаться oт давления на метеoстанции, в зависимoсти oт услoвий рельефа (при пoдъёме на 10 м давление пoнижается примернo на 1 мм рт.ст.).